Flag for China Weather past 2 weeks in Taiyuan, Shanxi, China

Now
86 °F

Passing clouds.


Feels Like: 84 °F
Forecast: 59 / 87 °F
Wind: 3 mph from Northwest

Location: Taiyuan Airport

Current Time: Jul 25, 2014 at 3:42:38 PM

Latest Report: Jul 25, 2014 at 3:00 PM


Visibility: N/A

Pressure: 29.80 "Hg

Humidity: 33%

Dew point: 54 °F

Location of TaiyuanLocation

Historic Weather in Taiyuan — Graph

°F

Taiyuan temperature yesterday

Maximum temperature yesterday: 81 °F (at 3:30 PM)
Minimum temperature yesterday: 66 °F (at 4:00 AM)
Average temperature yesterday: 72 °F

Past Weeks' High & Low Weather Summary

 TemperatureHumidityPressure
High93 °F (Jul 17, 4:00 PM)94% (Jul 11, 4:30 AM)29.92 "Hg (Jul 11, 4:30 AM)
Low59 °F (Jul 13, 4:00 AM)24% (Jul 18, 4:30 PM)29.65 "Hg (Jul 16, 4:30 PM)
Average75 °F63%29.80 "Hg
* Reported Jul 10 2:00 PM — Jul 25 2:30 PM, Taiyuan, Weather by CustomWeather, © 2014

Note: Actual official high and low records may vary slightly from our data, if they occured in-between our weather recording intervals... More about our weather records

Advertising

Taiyuan weather history for previous 24 hours

 ConditionsComfort  
Time TempWeatherWind HumidityBarometerVisibility
2:30 PM
Jul 25
84 °FPassing clouds.3 mph35%29.80 "HgN/A
2:00 PM84 °FPassing clouds.3 mph40%29.83 "HgN/A
1:30 PM82 °FPassing clouds.3 mph37%29.83 "HgN/A
1:00 PM82 °FPassing clouds.1 mph40%29.83 "HgN/A
12:30 PM81 °FPassing clouds.6 mph39%29.83 "HgN/A
12:00 PM81 °FSunny.1 mph37%29.83 "Hg10 mi
11:30 AM81 °FSunny.1 mph42%29.86 "Hg10 mi
10:30 AM79 °FSunny.1 mph42%29.86 "Hg10 mi
10:00 AM77 °FSunny.1 mph47%29.86 "Hg10 mi
9:30 AM73 °FSunny.1 mph53%29.86 "Hg10 mi
9:00 AM72 °FSunny.1 mph57%29.86 "Hg10 mi
8:30 AM72 °FSunny.1 mph57%29.86 "Hg10 mi
8:00 AM68 °FSunny.1 mph64%29.86 "Hg10 mi
7:30 AM66 °FSunny.3 mph68%29.86 "Hg10 mi
7:00 AM64 °FSunny.3 mph73%29.86 "Hg10 mi
6:30 AM63 °FSunny.3 mph77%29.86 "Hg10 mi
6:00 AM59 °FSunny.3 mph82%29.86 "Hg10 mi
5:30 AM59 °FSunny.1 mph82%29.83 "Hg10 mi
5:00 AM59 °FClear.1 mph88%29.83 "Hg10 mi
4:30 AM61 °FClear.No wind83%29.83 "Hg10 mi
4:00 AM59 °FClear.1 mph82%29.83 "Hg10 mi
3:30 AM61 °FClear.3 mph83%29.83 "Hg10 mi
3:00 AM63 °FClear.1 mph73%29.83 "Hg10 mi
2:30 AM63 °FClear.1 mph73%29.83 "Hg10 mi
2:00 AM64 °FClear.3 mph68%29.83 "Hg10 mi
1:30 AM68 °FClear.3 mph56%29.83 "Hg10 mi
1:00 AM68 °FClear.6 mph56%29.83 "Hg10 mi
12:30 AM68 °FPassing clouds.3 mph60%29.86 "HgN/A
12:00 AM68 °FClear.8 mph60%29.86 "Hg10 mi
11:30 PM
Jul 24
70 °FClear.10 mph60%29.86 "Hg10 mi
11:00 PM70 °FClear.13 mph60%29.83 "Hg10 mi
10:30 PM70 °FClear.13 mph64%29.83 "Hg10 mi
10:00 PM70 °FClear.13 mph64%29.83 "Hg10 mi
9:30 PM72 °FClear.8 mph57%29.83 "Hg10 mi
9:00 PM73 °FPassing clouds.6 mph53%29.83 "HgN/A
8:30 PM73 °FClear.6 mph53%29.80 "Hg10 mi
8:00 PM72 °FPassing clouds.3 mph57%29.80 "HgN/A
7:30 PM75 °FScattered clouds.6 mph50%29.80 "HgN/A
7:00 PM77 °FScattered clouds.3 mph47%29.77 "HgN/A
6:30 PM77 °FScattered clouds.8 mph47%29.77 "HgN/A
6:00 PM79 °FScattered clouds.8 mph42%29.77 "HgN/A
5:30 PM79 °FScattered clouds.8 mph45%29.77 "HgN/A
5:00 PM81 °FScattered clouds.6 mph42%29.77 "HgN/A
4:30 PM81 °FScattered clouds.8 mph45%29.77 "HgN/A
4:00 PM81 °FScattered clouds.8 mph42%29.80 "HgN/A
3:30 PM81 °FScattered clouds.8 mph42%29.80 "HgN/A
3:00 PM79 °FScattered clouds.10 mph45%29.80 "HgN/A
Weather by CustomWeather, © 2014

See weather overviewHow to use our weather pages